This demonstration page uses our WeatherBlox Daily Observations layout. Learn more.

Left ArrowRight Arrow

Hourly Observations for April 24, 2022

Temp ( °F °C ) Dew Point ( °F °C ) Humidity (%) Winds ( mph kmh ) Pressure ( in mb ) Visibility ( mi km ) Precip ( " mm )
12:56 am 00:56 Clear 50 9.8 28 -2.2 43 43 W 10 17 29.74 1007 10 16 0.00 0.00
1:56 am 01:56 Clear 48 9.1 29 -1.9 46 46 WSW 9 15 29.76 1008 10 16 0.00 0.00
2:56 am 02:56 Mostly Clear 47 8.5 29 -1.6 49 49 WSW 10 17 29.75 1008 10 16 0.00 0.00
3:56 am 03:56 Clear 45 7.4 29 -1.6 53 53 SW 9 15 29.78 1008 10 16 0.00 0.00
4:56 am 04:56 Clear 45 7.1 29 -1.8 54 54 SW 12 19 29.78 1008 10 16 0.00 0.00
5:56 am 05:56 Clear 44 6.5 29 -1.6 57 57 SW 10 17 29.76 1008 10 16 0.00 0.00
6:56 am 06:56 Sunny 44 6.4 29 -1.5 57 57 SW 10 17 29.80 1009 10 16 0.00 0.00
7:56 am 07:56 Sunny 47 8.1 30 -0.9 53 53 SW 13 20 29.82 1010 10 16 0.00 0.00
8:56 am 08:56 Sunny 50 10 29 -1.7 44 44 W 20 31 29.84 1011 10 16 0.00 0.00
9:56 am 09:56 Mostly Sunny 51 10.7 27 -2.7 39 39 WNW 21 33 29.86 1011 10 16 0.00 0.00
10:56 am 10:56 Mostly Sunny 53 11.5 27 -2.7 37 37 W 23 37 29.88 1012 10 16 0.00 0.00
11:09 am 11:09 Mostly Sunny 54 12 28 -2 38 38 W 21 33 29.88 1012 9 14 0.00 0.00
11:56 am 11:56 Mostly Cloudy 56 13.2 28 -2.3 34 34 W 24 39 29.90 1012 10 16 0.00 0.00
12:56 pm 12:56 Partly Cloudy 56 13.6 28 -2.4 33 33 W 22 35 29.91 1013 10 16 0.00 0.00
1:56 pm 13:56 Mostly Cloudy 57 14 26 -3.3 30 30 W 23 37 29.93 1013 10 16 0.00 0.00
2:56 pm 14:56 Partly Cloudy 58 14.2 27 -2.7 31 31 WNW 28 44 29.95 1014 10 16 0.00 0.00
3:56 pm 15:56 Mostly Cloudy 57 13.8 28 -2.2 33 33 WNW 25 41 29.97 1015 10 16 0.00 0.00
4:56 pm 16:56 Mostly Cloudy 55 12.7 29 -1.6 37 37 WNW 13 20 30.00 1016 10 16 0.00 0.00
5:56 pm 17:56 Cloudy 53 11.6 30 -1.2 41 41 WNW 18 30 30.02 1017 10 16 0.00 0.00
6:56 pm 18:56 Mostly Cloudy 51 10.4 30 -1.3 44 44 WNW 20 31 30.06 1018 10 16 0.00 0.00
7:56 pm 19:56 Cloudy 49 9.6 29 -1.8 45 45 WNW 16 26 30.07 1018 10 16 0.00 0.00
8:56 pm 20:56 Cloudy 48 9 27 -2.6 44 44 WNW 20 31 30.09 1019 10 16 0.00 0.00
9:56 pm 21:56 Mostly Cloudy 47 8.2 29 -1.9 49 49 WNW 15 24 30.11 1020 10 16 0.00 0.00
10:56 pm 22:56 Cloudy 46 7.5 28 -2 51 51 WNW 15 24 30.13 1020 10 16 0.00 0.00
11:56 pm 23:56 Mostly Cloudy 44 6.4 29 -1.7 57 57 NW 22 35 30.14 1021 10 16 0.00 0.00

Powered by AerisWeather